| time (UTC) | temp C | wind direction | speed KPH | gust KPH | rain 1hr cm | rain 24hr cm | rain mn cm | humidity % | barometer mb |
| 20260903050114 | 8 | 214 | 0.0 | 3.2 | 0.00 | 0.00 | 0.00 | 94 | 1020.6 |
| 20260903043043 | 9 | 214 | 0.0 | 3.2 | 0.00 | 0.00 | 0.00 | 94 | 1020.4 |
| 20260903040105 | 10 | 214 | 0.0 | 3.2 | 0.00 | 0.00 | 0.00 | 95 | 1020.5 |
| 20260903034557 | 8 | 214 | 0.0 | 0.0 | 0.00 | 0.00 | 0.00 | 94 | 1020.6 |
| 20260903031554 | 9 | 214 | 0.0 | 0.0 | 0.00 | 0.00 | 0.00 | 95 | 1020.7 |
| 20260903030045 | 8 | 214 | 0.0 | 0.0 | 0.00 | 0.00 | 0.00 | 93 | 1020.8 |
| 20260903023052 | 8 | 214 | 0.0 | 0.0 | 0.00 | 0.00 | 0.00 | 94 | 1020.9 |
| 20260903020108 | 8 | 214 | 0.0 | 0.0 | 0.00 | 0.00 | 0.00 | 93 | 1020.7 |
| 20260903014556 | 9 | 214 | 0.0 | 0.0 | 0.00 | 0.00 | 0.00 | 93 | 1020.8 |
| 20260903011553 | 9 | 214 | 0.0 | 0.0 | 0.00 | 0.00 | 0.00 | 93 | 1020.9 |
| 20260903004618 | 10 | 214 | 0.0 | 0.0 | 0.00 | 0.00 | 0.00 | 93 | 1020.8 |
| 20260903001557 | 10 | 214 | 0.0 | 0.0 | 0.00 | 0.00 | 0.00 | 94 | 1020.8 |
| 20260903000041 | 10 | 214 | 0.0 | 0.0 | 0.00 | 0.00 | 0.00 | 93 | 1020.8 |
| 20260902233107 | 10 | 214 | 0.0 | 0.0 | 0.00 | 0.00 | 0.00 | 93 | 1020.9 |
| 20260902231559 | 10 | 214 | 0.0 | 0.0 | 0.00 | 0.00 | 0.00 | 93 | 1020.9 |
| 20260902224545 | 10 | 214 | 0.0 | 0.0 | 0.00 | 0.00 | 0.00 | 92 | 1020.8 |
| 20260902223033 | 10 | 214 | 0.0 | 0.0 | 0.00 | 0.00 | 0.00 | 92 | 1020.8 |
| 20260902220138 | 11 | 214 | 0.0 | 0.0 | 0.00 | 0.00 | 0.00 | 91 | 1020.4 |
| 20260902214557 | 11 | 214 | 0.0 | 0.0 | 0.00 | 0.00 | 0.00 | 91 | 1020.5 |
| 20260902213038 | 11 | 214 | 0.0 | 0.0 | 0.00 | 0.00 | 0.00 | 91 | 1020.4 |
| 20260902210053 | 12 | 214 | 0.0 | 0.0 | 0.00 | 0.00 | 0.00 | 92 | 1020.3 |
| 20260902203102 | 12 | 214 | 0.0 | 0.0 | 0.00 | 0.00 | 0.00 | 90 | 1019.9 |
| 20260902201558 | 13 | 214 | 0.0 | 0.0 | 0.00 | 0.00 | 0.00 | 90 | 1019.9 |
| 20260902194542 | 14 | 214 | 0.0 | 0.0 | 0.00 | 0.00 | 0.00 | 88 | 1019.7 |
| 20260902191634 | 15 | 214 | 0.0 | 0.0 | 0.00 | 0.00 | 0.00 | 88 | 1019.5 |
| 20260902190043 | 15 | 214 | 0.0 | 0.0 | 0.00 | 0.00 | 0.00 | 88 | 1019.3 |
| 20260902183044 | 16 | 214 | 0.0 | 0.0 | 0.00 | 0.00 | 0.00 | 85 | 1019.1 |
| 20260902181540 | 17 | 214 | 0.0 | 0.0 | 0.00 | 0.00 | 0.00 | 84 | 1018.9 |
| 20260902174543 | 17 | 214 | 1.6 | 4.8 | 0.00 | 0.00 | 0.00 | 83 | 1018.7 |
| 20260902173035 | 18 | 214 | 1.6 | 3.2 | 0.00 | 0.00 | 0.00 | 83 | 1018.5 |
| 20260902170241 | 18 | 214 | 3.2 | 4.8 | 0.00 | 0.00 | 0.00 | 81 | 1018.5 |
| 20260902163104 | 20 | 214 | 1.6 | 4.8 | 0.00 | 0.00 | 0.00 | 76 | 1018.6 |
| 20260902161541 | 21 | 212 | 1.6 | 6.4 | 0.00 | 0.00 | 0.00 | 67 | 1018.3 |
| 20260902160043 | 21 | 215 | 0.0 | 8.0 | 0.00 | 0.00 | 0.00 | 65 | 1018.2 |
| 20260902153053 | 21 | 219 | 0.0 | 4.8 | 0.00 | 0.00 | 0.00 | 71 | 1018.6 |
| 20260902150056 | 23 | 316 | 3.2 | 14.5 | 0.00 | 0.00 | 0.00 | 61 | 1018.5 |
| 20260902144545 | 23 | 244 | 6.4 | 12.9 | 0.00 | 0.00 | 0.00 | 58 | 1018.8 |
| 20260902142726 | 23 | 229 | 3.2 | 17.7 | 0.00 | 0.00 | 0.00 | 58 | 1019.0 |
| 20260902134532 | 23 | 202 | 3.2 | 9.7 | 0.00 | 0.00 | 0.00 | 59 | 1019.5 |
| 20260902131546 | 23 | 248 | 3.2 | 14.5 | 0.00 | 0.00 | 0.00 | 62 | 1019.3 |
| 20260902124550 | 23 | 191 | 1.6 | 12.9 | 0.00 | 0.00 | 0.00 | 63 | 1019.6 |
| 20260902123033 | 23 | 244 | 1.6 | 11.3 | 0.00 | 0.00 | 0.00 | 60 | 1019.6 |
| 20260902120040 | 23 | 218 | 4.8 | 12.9 | 0.00 | 0.00 | 0.00 | 61 | 1019.7 |
| 20260902113052 | 23 | 144 | 4.8 | 11.3 | 0.00 | 0.00 | 0.00 | 61 | 1020.1 |
| 20260902111539 | 22 | 294 | 1.6 | 9.7 | 0.00 | 0.00 | 0.00 | 62 | 1020.2 |
| 20260902104602 | 22 | 135 | 3.2 | 8.0 | 0.00 | 0.00 | 0.00 | 67 | 1020.6 |
| 20260902103059 | 21 | 184 | 1.6 | 11.3 | 0.00 | 0.00 | 0.00 | 65 | 1020.6 |
| 20260902101555 | 22 | 202 | 6.4 | 17.7 | 0.00 | 0.00 | 0.00 | 64 | 1020.7 |
| 20260902100109 | 22 | 234 | 1.6 | 8.0 | 0.00 | 0.00 | 0.00 | 67 | 1020.6 |
| 20260902094530 | 21 | 301 | 1.6 | 6.4 | 0.00 | 0.00 | 0.00 | 66 | 1020.6 |
| 20260902091611 | 22 | 291 | 1.6 | 6.4 | 0.00 | 0.00 | 0.00 | 62 | 1020.8 |
| 20260902084610 | 21 | 42 | 1.6 | 9.7 | 0.00 | 0.00 | 0.00 | 70 | 1020.7 |
| 20260902083051 | 21 | 281 | 3.2 | 6.4 | 0.00 | 0.00 | 0.00 | 69 | 1020.7 |
| 20260902074555 | 17 | 215 | 0.0 | 3.2 | 0.00 | 0.00 | 0.00 | 88 | 1020.6 |
| 20260902073047 | 16 | 215 | 0.0 | 3.2 | 0.00 | 0.00 | 0.00 | 94 | 1020.8 |
| 20260902070108 | 14 | 215 | 0.0 | 3.2 | 0.00 | 0.00 | 0.00 | 96 | 1020.5 |
| 20260902063306 | 12 | 215 | 1.6 | 3.2 | 0.00 | 0.00 | 0.00 | 96 | 1020.6 |
| 20260902060034 | 11 | 215 | 0.0 | 0.0 | 0.00 | 0.00 | 0.00 | 95 | 1020.7 |
| 20260902053031 | 10 | 215 | 0.0 | 3.2 | 0.00 | 0.03 | 0.00 | 95 | 1020.4 |